This demonstration page uses our WeatherBlox Daily Observations layout. Learn more.

Left ArrowRight Arrow

39.01783, -85.05884

Hourly Observations for December 23, 2016

Temp ( °F °C ) Dew Point ( °F °C ) Humidity (%) Winds ( mph kmh ) Pressure ( in mb ) Visibility ( mi km ) Precip ( " mm )
12:52 am 00:52 Cloudy with Mist and Fog 26 -3.3 24 -4.4 92 92 N N/A 30.44 1031 5 8 N/A
1:52 am 01:52 Mostly Cloudy with Mist and Fog 27 -2.8 24 -4.4 89 89 N N/A 30.42 1030 6 10 N/A
2:52 am 02:52 Cloudy with Mist and Fog 27 -2.8 25 -3.9 92 92 N N/A 30.43 1031 6 10 N/A
3:52 am 03:52 Cloudy with Mist and Fog 29 -1.7 25 -3.9 85 85 SSE 3 6 30.43 1031 6 10 N/A
4:52 am 04:52 Cloudy with Mist and Fog 27 -2.8 24 -4.4 89 89 S 5 7 30.42 1030 6 10 N/A
5:52 am 05:52 Cloudy 31 -0.6 26 -3.3 82 82 SSE 6 9 30.40 1029 8 13 N/A
6:52 am 06:52 Cloudy 31 -0.6 26 -3.3 82 82 ESE 3 6 30.42 1030 8 13 N/A
7:52 am 07:52 Cloudy 30 -1.1 27 -2.8 88 88 SSE 5 7 30.43 1031 7 11 N/A
8:52 am 08:52 Sunny with Mist and Fog 32 undefined 27 -2.8 82 82 ESE 3 6 30.42 1030 7 11 N/A
9:52 am 09:52 Cloudy 33 0.6 27 -2.8 78 78 E 5 7 30.44 1031 8 13 N/A
10:52 am 10:52 Cloudy 35 1.7 28 -2.2 76 76 E 6 9 30.41 1030 8 13 N/A
11:52 am 11:52 Cloudy 36 2.2 28 -2.2 73 73 ESE 12 19 30.34 1028 8 13 N/A
12:52 pm 12:52 Cloudy 38 3.3 28 -2.2 68 68 ESE 7 11 30.32 1027 9 14 N/A
1:52 pm 13:52 Cloudy 40 4.4 29 -1.7 65 65 SE 8 13 30.27 1025 10 16 N/A
2:52 pm 14:52 Cloudy 41 5 29 -1.7 62 62 SSE 9 15 30.24 1024 10 16 N/A
3:52 pm 15:52 Cloudy with Light Rain 40 4.4 32 undefined 73 73 E 7 11 30.24 1024 8 13 N/A
4:52 pm 16:52 Cloudy 40 4.4 31 -0.6 70 70 SSE 7 11 30.19 1023 10 16 N/A
5:52 pm 17:52 Cloudy 41 5 29 -1.7 62 62 SSE 8 13 30.18 1022 10 16 N/A
6:52 pm 18:52 Cloudy 41 5 29 -1.7 62 62 SSE 10 17 30.14 1021 10 16 N/A
7:52 pm 19:52 Cloudy with Light Rain 41 5 31 -0.6 67 67 S 13 20 30.10 1019 10 16 0.01 0.25
8:52 pm 20:52 Cloudy with Light Rain 41 5 32 undefined 70 70 S 6 9 30.12 1020 8 13 N/A
9:52 pm 21:52 Cloudy with Light Rain 40 4.4 35 1.7 83 83 SSE 6 9 30.09 1019 10 16 0.06 1.52
10:52 pm 22:52 Cloudy with Light Rain 39 3.9 37 2.8 93 93 SE 3 6 30.10 1019 6 10 0.07 1.78
11:52 pm 23:52 Cloudy with Light Rain 39 3.9 38 3.3 96 96 S 6 9 30.09 1019 5 8 0.09 2.29

Powered by AerisWeather